Probability
0 0 0 0 0 0 0 0 0 0 3 3 3 0 0 3 3 6 10 16 16 19 19 23 23 19 19 23 16 13 13 13 10 10 13 13 13 6 10 10 13 13 13 10
0 0 0 0 0 0 0 0 0 0 3 3 3 0 0 3 6 6 10 16 16 16 13 19 23 23 23 23 19 19 16 16 13 10 13 10 10 13 13 16 16 19 19 16
0 0 0 0 0 0 0 0 0 0 6 3 3 3 3 6 6 13 13 16 13 13 19 19 23 23 26 26 23 26 23 23 19 19 13 16 16 16 16 13 19 16 16 19
0 0 0 0 0 0 0 0 0 0 0 0 0 0 6 10 13 16 10 10 10 10 16 19 23 23 26 26 26 29 26 29 23 23 23 19 19 19 16 10 19 19 23 16
0 0 0 0 0 0 0 0 0 0 0 0 0 0 0 3 13 16 13 16 13 13 16 16 19 23 23 26 26 26 29 32 29 23 32 29 23 19 19 19 16 23 23 19
0 0 0 0 0 0 0 0 0 0 0 0 0 0 0 0 13 16 16 16 23 13 19 13 19 23 19 19 23 29 29 29 26 29 29 29 23 23 26 26 23 23 26 29
0 0 0 0 0 0 0 0 0 0 0 0 0 3 3 3 3 10 13 26 26 19 13 13 19 19 26 26 29 32 32 29 35 32 29 29 26 23 26 26 23 23 26 23
0 0 0 0 0 0 0 0 0 0 0 0 0 3 3 3 3 6 10 16 26 19 16 13 10 19 26 26 29 29 35 35 39 45 35 32 26 23 26 26 23 23 19 23
0 0 0 0 0 0 0 0 0 0 0 0 0 3 3 3 3 6 10 10 23 29 13 16 13 19 26 23 26 29 32 35 39 39 39 35 39 26 23 16 19 23 16 16
0 0 0 0 0 0 0 0 0 0 0 0 0 3 3 3 3 10 10 16 16 19 19 13 13 23 26 32 29 35 35 32 35 35 29 35 35 39 26 23 29 13 16 16
0 0 0 0 0 0 0 0 0 0 0 0 0 0 3 3 3 3 3 10 19 23 16 19 16 16 23 29 26 32 29 32 29 23 26 29 29 32 35 26 26 29 26 26
0 0 0 0 0 0 0 0 0 0 0 0 0 0 3 3 3 3 13 13 19 16 16 16 26 23 23 32 26 26 29 32 29 29 29 23 23 29 32 35 39 42 42 39
0 0 0 0 0 0 0 0 0 0 0 0 0 0 3 6 6 10 13 13 19 19 16 16 23 19 16 23 26 26 26 26 23 26 26 23 29 29 32 32 35 42 42 42
0 0 0 0 0 0 0 0 0 0 0 0 0 0 3 6 10 10 10 3 16 19 23 23 19 19 19 19 26 26 26 23 19 19 19 23 26 26 26 32 32 35 35 45
0 0 0 0 0 0 0 0 0 0 0 0 0 3 3 3 13 13 10 6 19 26 19 19 19 19 19 23 26 23 23 26 23 19 23 19 19 23 26 26 26 26 32 35
0 0 0 0 0 0 0 0 0 0 0 0 0 3 3 10 16 16 10 13 26 23 23 19 19 26 19 23 23 23 23 23 19 23 29 26 23 23 23 19 23 23 29 29
0 0 0 0 0 0 0 0 0 0 0 0 0 3 6 13 13 19 13 16 23 23 19 19 19 26 26 13 13 16 13 13 16 19 23 19 23 26 26 26 23 26 26 26
0 0 0 0 0 0 0 0 0 0 0 0 0 3 10 13 13 16 19 16 19 16 16 19 23 23 16 16 13 16 19 19 23 19 19 19 19 23 26 26 23 26 26 26
0 0 0 0 0 0 0 0 0 0 0 3 3 6 13 13 13 13 6 16 13 10 10 13 26 19 16 13 16 19 19 26 26 26 23 23 23 19 26 26 26 26 26 26
0 0 0 0 0 0 0 0 0 0 3 3 6 6 13 13 13 13 10 3 10 10 16 13 16 19 16 13 13 16 16 23 23 23 26 23 23 23 23 26 26 26 26 26
0 0 0 0 0 0 0 3 0 0 0 6 6 6 10 10 13 6 6 3 6 16 16 13 10 16 16 13 13 19 19 19 23 16 13 16 13 16 23 23 23 26 29 23
0 0 0 0 0 0 0 3 3 0 0 6 6 10 6 3 6 6 13 10 6 10 10 10 13 16 16 13 13 16 13 13 10 10 10 10 13 13 13 19 19 23 23 23
0 0 0 0 0 0 0 0 0 0 3 6 10 10 3 3 3 3 6 6 3 6 10 10 10 13 13 13 10 10 13 13 10 10 10 10 13 13 13 16 16 16 16 19
0 0 0 0 0 0 0 3 3 3 3 6 10 6 6 3 6 10 6 3 3 3 10 10 10 10 13 13 13 10 13 13 13 10 16 16 13 13 13 13 16 13 16 13
0 0 0 0 0 3 3 3 3 3 3 10 6 10 10 10 13 6 3 0 0 3 3 10 10 10 10 10 10 10 13 13 13 13 16 19 16 13 13 13 10 6 10 10
0 0 0 0 0 6 3 3 3 3 3 10 6 10 10 13 10 6 6 3 3 6 3 3 10 10 10 10 10 10 10 13 13 13 13 10 13 10 10 6 3 0 0 3
Height
5929 5930 5930 5931 5931 5931 5931 5931 5931 5930 5929 5929 5928 5927 5925 5923 5922 5922 5920 5918 5916 5915 5914 5912 5911 5909 5908 5907 5906 5905 5904 5903 5902 5901 5900 5899 5899 5898 5898 5898 5898 5897 5897 5896
5927 5928 5929 5930 5930 5930 5930 5930 5930 5929 5928 5928 5927 5926 5925 5923 5922 5921 5920 5918 5917 5915 5913 5912 5911 5909 5908 5907 5906 5904 5903 5902 5901 5900 5899 5899 5898 5898 5898 5897 5897 5896 5896 5895
5925 5927 5927 5928 5929 5929 5929 5929 5928 5928 5927 5926 5925 5925 5923 5922 5921 5920 5919 5918 5916 5914 5913 5911 5910 5909 5907 5906 5905 5904 5903 5901 5900 5899 5899 5898 5898 5897 5896 5896 5896 5895 5895 5894
5923 5924 5925 5925 5926 5927 5927 5927 5927 5926 5926 5925 5925 5923 5923 5922 5920 5919 5918 5916 5915 5913 5912 5910 5909 5908 5906 5905 5904 5902 5901 5900 5899 5899 5898 5897 5897 5896 5895 5895 5894 5894 5893 5893
5921 5922 5922 5923 5924 5924 5925 5925 5925 5924 5924 5923 5923 5922 5922 5920 5919 5917 5916 5915 5914 5911 5910 5909 5908 5907 5905 5903 5902 5901 5900 5899 5898 5897 5897 5896 5895 5894 5894 5893 5893 5892 5891 5891
5918 5919 5920 5921 5921 5922 5922 5923 5923 5922 5922 5921 5921 5920 5919 5918 5917 5915 5914 5913 5911 5910 5909 5907 5906 5905 5903 5902 5900 5899 5899 5898 5897 5896 5894 5894 5893 5892 5892 5891 5890 5890 5889 5888
5915 5916 5917 5918 5918 5919 5919 5920 5920 5919 5919 5919 5918 5917 5917 5915 5914 5913 5912 5911 5909 5908 5907 5906 5904 5902 5901 5899 5898 5897 5897 5895 5895 5894 5893 5892 5891 5890 5889 5888 5888 5887 5886 5886
5911 5913 5913 5914 5915 5915 5916 5916 5917 5916 5915 5915 5914 5913 5913 5912 5910 5909 5909 5908 5907 5905 5905 5903 5901 5900 5898 5897 5896 5895 5894 5893 5892 5891 5890 5889 5888 5887 5886 5886 5885 5884 5884 5883
5907 5909 5911 5911 5911 5912 5912 5913 5913 5913 5912 5911 5910 5910 5909 5907 5907 5907 5906 5905 5903 5902 5901 5900 5898 5897 5895 5894 5893 5892 5890 5889 5888 5887 5886 5886 5885 5884 5883 5882 5881 5880 5880 5879
5903 5905 5907 5907 5908 5907 5908 5909 5909 5909 5908 5907 5906 5905 5905 5903 5903 5902 5901 5900 5900 5899 5897 5896 5894 5893 5892 5891 5889 5888 5886 5885 5884 5883 5882 5881 5880 5879 5878 5878 5877 5876 5876 5875
5898 5900 5902 5902 5902 5903 5904 5904 5904 5904 5903 5902 5901 5903 5901 5899 5899 5897 5896 5896 5895 5894 5893 5891 5889 5889 5887 5887 5885 5884 5883 5881 5880 5879 5878 5877 5876 5875 5874 5873 5872 5871 5871 5870
5893 5895 5896 5897 5898 5898 5898 5899 5899 5899 5899 5898 5896 5899 5895 5894 5893 5892 5892 5891 5889 5888 5887 5886 5885 5884 5883 5881 5880 5879 5878 5877 5876 5875 5873 5872 5871 5869 5869 5868 5867 5866 5865 5865
5887 5889 5890 5892 5895 5894 5893 5894 5894 5894 5893 5892 5891 5893 5890 5889 5888 5887 5886 5886 5885 5884 5882 5881 5880 5879 5878 5876 5875 5874 5873 5871 5870 5869 5868 5867 5866 5864 5863 5862 5861 5860 5859 5859
5882 5883 5885 5886 5887 5887 5887 5888 5888 5888 5887 5887 5886 5885 5885 5884 5883 5882 5881 5880 5879 5878 5877 5876 5875 5873 5872 5871 5870 5868 5867 5865 5864 5863 5862 5861 5860 5858 5857 5856 5855 5854 5853 5852
5876 5877 5878 5879 5880 5881 5881 5881 5881 5882 5881 5881 5880 5879 5879 5877 5877 5876 5875 5875 5874 5873 5872 5870 5869 5867 5865 5864 5863 5862 5861 5859 5858 5857 5856 5854 5853 5852 5850 5849 5848 5847 5846 5846
5869 5870 5872 5873 5874 5874 5874 5875 5875 5875 5875 5874 5874 5873 5873 5871 5870 5870 5869 5868 5867 5866 5865 5863 5862 5861 5859 5857 5856 5855 5854 5853 5851 5850 5849 5848 5847 5845 5844 5843 5842 5840 5840 5839
5862 5863 5865 5866 5867 5867 5867 5869 5869 5869 5868 5868 5867 5867 5866 5865 5864 5863 5862 5860 5859 5858 5857 5856 5855 5854 5853 5851 5849 5848 5847 5846 5845 5844 5842 5841 5840 5839 5837 5836 5835 5834 5833 5832
5855 5856 5857 5859 5860 5860 5863 5862 5862 5862 5862 5861 5861 5860 5859 5859 5857 5856 5854 5853 5852 5851 5850 5849 5848 5847 5846 5843 5841 5841 5840 5839 5838 5836 5835 5834 5833 5831 5830 5829 5828 5827 5826 5825
5847 5849 5849 5851 5851 5852 5854 5855 5855 5855 5854 5854 5854 5853 5852 5852 5850 5849 5847 5846 5845 5843 5842 5842 5840 5839 5838 5836 5835 5835 5833 5832 5830 5828 5828 5827 5826 5824 5823 5822 5821 5820 5819 5818
5839 5840 5841 5842 5843 5844 5848 5848 5847 5848 5846 5847 5847 5846 5846 5845 5844 5843 5841 5839 5838 5836 5835 5834 5833 5832 5831 5829 5828 5827 5826 5824 5822 5822 5821 5819 5818 5817 5815 5814 5813 5812 5811 5810
5831 5832 5832 5833 5834 5836 5839 5839 5840 5841 5840 5840 5839 5839 5838 5837 5837 5836 5834 5832 5831 5830 5829 5827 5826 5825 5823 5822 5820 5819 5818 5817 5815 5814 5812 5811 5810 5809 5807 5806 5805 5804 5803 5802
5822 5823 5824 5825 5826 5829 5830 5831 5833 5832 5832 5832 5832 5831 5831 5830 5829 5828 5827 5826 5824 5823 5822 5820 5819 5818 5816 5814 5813 5812 5811 5809 5807 5806 5804 5803 5801 5800 5799 5798 5797 5796 5795 5794
5812 5815 5816 5817 5820 5821 5822 5823 5824 5823 5824 5824 5824 5824 5823 5822 5821 5821 5819 5818 5817 5816 5814 5813 5812 5811 5809 5807 5805 5804 5803 5801 5800 5798 5796 5794 5794 5792 5791 5790 5789 5788 5787 5786
5804 5805 5807 5808 5809 5811 5813 5814 5815 5815 5815 5816 5816 5816 5815 5815 5814 5813 5812 5811 5810 5808 5807 5805 5804 5803 5801 5799 5798 5796 5795 5793 5792 5791 5789 5787 5786 5784 5783 5782 5781 5780 5779 5778
5795 5797 5798 5799 5801 5802 5804 5805 5807 5807 5807 5808 5808 5808 5807 5807 5806 5805 5804 5803 5801 5800 5798 5797 5796 5795 5794 5792 5791 5789 5788 5786 5784 5783 5782 5780 5778 5777 5776 5775 5773 5772 5771 5770
5786 5787 5789 5791 5793 5795 5797 5797 5798 5799 5800 5800 5800 5800 5799 5799 5798 5797 5796 5795 5793 5792 5789 5788 5788 5787 5786 5784 5783 5782 5780 5778 5777 5776 5774 5773 5772 5770 5768 5767 5766 5764 5763 5762
Wind_Speed
8 7 6 5 4 3 1 2 3 4 7 9 9 11 12 11 12 12 12 12 12 11 11 12 12 11 10 8 8 8 7 6 6 5 5 4 3 3 3 2 2 2 2 2
9 8 5 4 6 6 5 4 4 6 8 9 9 10 11 11 12 13 13 12 12 11 11 11 12 11 10 9 8 8 7 7 6 5 4 4 3 3 2 3 2 2 2 3
9 8 8 8 8 8 6 6 6 8 7 7 9 9 10 12 13 12 12 12 12 12 11 11 11 11 10 9 8 8 7 7 6 5 4 4 3 3 3 3 3 3 4 4
11 10 11 11 9 9 8 7 8 8 8 8 10 11 9 10 13 12 12 13 12 11 10 10 11 11 11 9 8 8 7 7 6 4 4 3 4 4 4 4 4 5 5 5
12 12 12 12 10 10 10 8 9 9 9 10 10 11 10 11 11 12 12 13 14 12 11 10 11 11 11 10 8 7 7 7 6 5 4 4 5 5 5 6 6 6 6 6
13 12 12 11 11 11 11 10 10 11 11 11 10 12 11 11 11 12 13 14 15 13 13 12 12 11 11 10 8 7 7 7 7 6 6 5 6 6 7 7 7 8 8 8
13 13 12 11 11 11 11 12 11 11 11 11 11 12 11 10 12 13 13 14 15 15 14 13 13 10 11 10 10 9 9 8 8 8 7 7 7 8 8 9 9 10 9 9
14 13 12 12 12 12 13 13 13 13 14 14 15 15 13 13 14 14 13 14 15 16 14 14 14 13 12 11 11 11 10 9 10 10 10 9 9 9 10 10 10 10 11 11
16 14 13 13 12 12 13 14 13 13 15 17 17 17 15 16 16 15 15 15 16 15 15 16 16 15 13 13 12 12 12 12 12 12 12 11 11 11 12 11 12 12 12 13
17 17 15 14 15 15 15 15 16 17 18 19 18 18 17 18 18 17 17 18 18 17 16 16 17 17 15 14 14 14 14 14 14 14 14 13 13 13 13 13 13 13 14 14
19 19 17 17 17 16 15 16 17 18 19 19 20 19 18 18 19 20 20 20 20 19 17 17 17 17 16 16 16 16 16 16 16 16 16 15 14 14 15 15 15 15 15 16
20 20 20 19 18 17 17 18 19 19 20 21 22 20 20 21 21 22 22 21 21 20 18 18 18 18 17 17 18 17 17 18 17 17 17 17 17 16 16 17 17 17 17 17
22 22 22 21 20 20 20 21 20 20 21 22 24 23 22 22 22 22 22 21 21 22 22 20 18 18 18 18 19 19 19 19 19 18 19 19 19 19 19 18 18 19 19 19
23 24 24 23 22 22 23 23 23 22 23 23 24 24 24 23 23 23 23 22 23 24 24 22 21 20 19 19 19 20 20 20 20 20 20 20 20 20 20 20 20 20 20 19
24 25 25 24 23 24 25 25 24 24 23 24 24 24 24 24 25 25 24 25 25 25 25 23 22 20 20 19 20 21 20 20 19 20 20 20 20 20 21 20 20 20 20 20
26 26 25 25 24 25 25 25 24 25 24 24 25 26 25 25 26 27 26 26 26 26 25 24 23 21 21 21 21 21 21 21 20 20 21 21 21 21 21 21 20 21 21 21
27 27 26 26 25 26 27 24 24 24 25 25 27 26 26 26 26 27 28 28 27 26 26 25 24 23 23 23 22 21 21 21 20 21 21 21 21 21 21 21 21 21 22 22
28 28 27 26 25 27 26 24 24 24 24 25 26 26 26 27 27 28 28 27 27 27 26 25 25 24 24 23 22 23 23 22 21 21 22 22 22 21 21 22 22 22 23 23
29 29 29 29 28 28 26 25 24 25 26 25 25 25 26 27 28 28 28 27 27 27 27 26 26 26 26 25 23 23 23 22 22 22 23 23 23 23 22 23 23 24 24 24
30 31 31 30 31 30 27 25 25 26 27 26 26 26 27 27 28 28 28 28 29 28 28 28 27 27 27 26 25 25 25 25 24 23 24 25 25 25 24 24 24 24 25 25
31 31 31 31 31 30 27 26 25 27 27 26 27 27 28 29 29 28 28 29 29 28 28 28 28 29 29 29 28 27 26 26 25 25 25 25 25 25 25 25 25 25 25 25
31 31 31 31 31 30 28 27 27 28 28 27 27 27 28 28 28 29 29 29 28 29 29 29 29 29 30 30 29 27 27 27 27 26 25 25 26 26 26 26 26 26 26 26
31 31 31 31 31 30 28 28 27 27 28 28 27 28 28 29 28 28 28 28 28 29 30 30 29 29 29 29 29 29 28 28 28 28 27 26 26 25 25 26 26 26 26 26
31 31 31 30 29 30 29 29 28 27 28 28 28 28 28 28 28 28 28 29 29 29 29 30 29 29 29 30 30 30 28 27 28 27 27 27 26 25 25 26 26 26 26 26
31 32 32 31 31 31 30 30 29 30 30 29 28 28 28 27 27 28 28 29 29 29 29 29 29 29 29 29 28 27 28 28 27 27 27 26 25 26 26 26 26 26 26 26
29 31 32 32 31 30 29 29 30 30 30 29 29 29 29 29 28 28 29 29 29 29 30 28 28 28 27 27 27 27 27 27 27 27 26 26 25 25 25 25 25 26 26 27
Wind_Direction
189 189 193 196 183 169 214 333 341 338 336 335 343 350 355 5 11 10 9 8 8 7 6 7 8 11 14 15 12 8 12 13 9 5 4 2 9 15 11 7 8 8 360 343
206 203 206 213 195 206 240 267 292 305 314 319 328 338 347 355 2 2 2 3 4 3 2 2 360 1 2 3 3 2 3 2 359 356 354 357 2 5 349 333 330 335 332 328
213 209 215 219 215 228 241 260 273 290 309 313 322 329 340 350 352 354 356 356 355 356 357 354 352 352 352 348 348 350 351 352 350 350 349 346 337 321 312 307 308 312 310 310
216 220 225 225 225 240 249 258 262 280 288 298 307 316 327 337 345 344 349 347 347 345 346 349 348 345 344 339 336 338 341 342 343 340 336 330 315 303 292 293 298 302 305 305
220 225 230 235 238 245 245 253 265 268 273 283 293 302 313 328 336 337 342 340 339 335 335 340 341 341 339 334 330 330 331 335 337 330 320 316 305 301 295 287 286 289 294 294
225 229 236 240 243 246 244 248 251 257 262 273 285 293 304 317 319 319 327 328 328 330 329 331 333 332 331 329 326 325 323 320 320 316 310 305 297 289 289 287 284 282 284 287
232 233 239 244 247 243 243 245 248 250 259 270 278 285 295 298 305 310 313 318 323 322 320 321 324 330 329 326 323 317 315 312 314 314 310 305 299 292 287 286 283 281 282 284
241 240 244 251 252 250 247 251 255 262 274 277 280 286 294 291 297 302 303 308 313 313 312 313 317 325 326 320 314 310 307 300 304 305 301 299 295 291 285 282 283 281 280 281
244 244 244 248 248 250 248 251 257 268 275 278 281 284 287 286 290 295 297 304 308 306 302 304 309 314 316 316 310 302 300 300 302 302 296 293 290 287 284 282 279 278 277 277
247 247 245 245 246 247 252 253 257 265 272 276 276 278 286 291 289 294 296 302 307 303 299 300 304 307 310 310 306 300 298 298 299 300 297 290 287 286 283 281 279 277 276 276
246 247 247 246 246 248 250 252 256 262 267 274 277 279 284 286 288 289 295 299 304 302 298 301 302 303 303 305 304 298 294 294 294 295 298 297 292 287 284 282 279 277 275 274
244 247 247 250 251 249 250 253 257 263 266 269 275 280 284 287 285 288 292 296 300 296 293 291 293 293 297 299 300 296 292 291 290 291 291 293 293 290 288 286 282 279 276 274
244 247 249 248 249 251 253 255 258 265 268 269 275 281 285 286 285 287 292 293 295 295 297 295 291 292 292 296 297 296 294 289 289 290 289 289 291 289 288 289 285 280 277 275
246 248 248 248 249 252 254 256 259 264 268 272 276 281 283 285 285 287 291 292 294 295 297 295 291 291 293 295 295 293 292 290 287 287 288 289 289 289 289 289 287 284 278 274
244 247 249 249 248 251 253 255 258 262 268 274 278 281 283 283 285 286 288 289 290 292 292 294 290 288 293 293 293 294 293 291 290 289 289 290 290 290 290 290 288 284 281 277
244 247 249 250 248 250 253 254 258 260 266 273 277 278 278 278 281 282 283 285 285 289 290 292 289 287 289 291 290 291 293 292 290 289 289 288 288 289 289 289 287 284 281 278
248 249 251 251 252 253 252 254 256 257 260 267 272 275 275 276 278 280 282 283 285 289 290 290 289 290 290 292 289 286 289 289 287 287 286 287 288 287 287 287 284 284 282 279
250 251 252 253 254 254 256 256 257 258 260 265 271 275 274 276 278 279 281 282 283 286 287 287 287 288 289 292 291 289 289 286 284 284 284 286 287 287 286 285 285 283 281 280
249 251 253 254 255 256 256 256 257 259 260 262 267 272 273 275 277 280 282 283 284 283 285 287 289 289 287 288 289 288 289 289 288 283 283 285 285 284 284 283 283 281 280 280
250 252 254 254 255 256 256 255 256 258 259 262 266 271 272 273 276 279 281 282 283 283 283 285 285 289 289 287 287 288 288 289 288 286 284 283 282 283 281 281 282 282 280 279
251 253 254 255 256 257 256 255 256 258 262 264 268 271 272 274 276 278 278 280 282 282 282 283 284 286 286 288 287 288 287 288 288 287 286 284 283 281 279 279 280 282 282 280
251 252 254 255 256 257 257 255 256 260 264 266 268 270 271 274 276 276 277 279 282 283 283 282 283 284 286 287 287 287 287 288 287 287 287 287 283 280 278 278 280 282 283 282
250 252 254 255 256 257 256 256 260 261 263 266 268 270 271 273 274 275 276 277 279 283 282 281 281 282 284 286 286 288 287 285 286 286 288 290 287 282 282 282 282 282 283 283
248 250 252 254 254 254 254 257 261 263 264 267 269 271 270 270 271 273 275 277 279 281 283 285 284 283 285 285 285 286 286 286 284 285 286 288 286 285 285 284 284 284 284 283
248 249 249 251 253 255 257 259 260 261 264 266 268 270 271 274 275 274 275 277 280 282 283 285 285 285 283 285 284 285 285 288 290 288 287 285 285 286 286 286 286 285 284 283
247 248 248 249 252 255 258 258 258 260 262 265 268 270 272 274 275 276 277 278 280 282 283 284 285 286 285 287 286 286 286 288 289 288 287 287 287 288 288 287 286 285 284 284